This is the latest recevied weather packets stored in our database for station/object K4AVM-13. If no packets are shown the sender has not sent any weather packets the latest 10 day(s).
| Time | Temp. | Humidity | Pressure | Rain* | Wind** | Luminosity | Snow |
|---|---|---|---|---|---|---|---|
| 1777822983 | 13.33° C | 35% | 1019.9 hPa | 0 mm | - | 662 W/m² | - |
| 1777822681 | 13.89° C | 40% | 1020 hPa | 0 mm | - | 656 W/m² | - |
| 1777822378 | 13.33° C | 35% | 1020 hPa | 0 mm | - | 648 W/m² | - |
| 1777822076 | 13.33° C | 39% | 1019.8 hPa | 0 mm | - | 647 W/m² | - |
| 1777821773 | 13.89° C | 37% | 1020 hPa | 0 mm | - | 640 W/m² | - |
| 1777821470 | 13.33° C | 35% | 1019.9 hPa | 0 mm | - | 634 W/m² | - |
| 1777821168 | 13.89° C | 35% | 1019.8 hPa | 0 mm | - | 626 W/m² | - |
| 1777820864 | 12.78° C | 36% | 1019.8 hPa | 0 mm | - | 619 W/m² | - |
| 1777820560 | 13.33° C | 38% | 1020 hPa | 0 mm | - | 609 W/m² | - |
| 1777820257 | 12.22° C | 39% | 1019.9 hPa | 0 mm | - | 600 W/m² | - |
| 1777819955 | 12.78° C | 36% | 1020 hPa | 0 mm | - | 590 W/m² | - |
| 1777819652 | 13.33° C | 37% | 1019.9 hPa | 0 mm | - | 580 W/m² | - |
| 1777819350 | 12.78° C | 36% | 1020 hPa | 0 mm | - | 573 W/m² | - |
| 1777819046 | 12.78° C | 37% | 1019.7 hPa | 0 mm | - | 562 W/m² | - |
| 1777818744 | 11.67° C | 38% | 1019.9 hPa | 0 mm | - | 554 W/m² | - |
| 1777818440 | 12.78° C | 34% | 1019.9 hPa | 0 mm | - | 544 W/m² | - |
| 1777818137 | 12.22° C | 35% | 1020 hPa | 0 mm | - | 520 W/m² | - |
| 1777817834 | 12.22° C | 37% | 1020 hPa | 0 mm | - | 510 W/m² | - |
| 1777817531 | 12.22° C | 36% | 1020 hPa | 0 mm | - | 498 W/m² | - |
| 1777817227 | 12.22° C | 34% | 1019.9 hPa | 0 mm | - | 488 W/m² | - |
| 1777816925 | 11.67° C | 35% | 1019.8 hPa | 0 mm | - | 475 W/m² | - |
| 1777816621 | 12.22° C | 37% | 1019.8 hPa | 0 mm | - | 462 W/m² | - |
| 1777816318 | 11.67° C | 35% | 1019.9 hPa | 0 mm | - | 452 W/m² | - |
| 1777816016 | 12.22° C | 38% | 1019.8 hPa | 0 mm | - | 438 W/m² | - |
| 1777815713 | 12.22° C | 42% | 1019.6 hPa | 0 mm | - | 426 W/m² | - |
* Rain latest hour (hover to see other rain measurements)
** Current wind speed in m/s (hover to see current wind gust speed)